RH
93 90 90 87 84 85 86 88 92 86 83 86 84 85 83 80 81 76 76 78 76 76 76 77 77 76 78 79 78 79 76 74 72 69 73 80 81 82 90 95 81 69 68 61 52 46 37 47 65 68 68 66
95 94 93 89 85 86 86 87 88 82 82 87 84 86 82 77 78 77 79 79 79 78 78 79 78 77 78 79 78 78 76 75 74 72 77 80 80 83 88 83 69 66 66 57 51 43 37 51 67 68 67 65
96 97 96 93 90 89 86 83 81 80 83 84 84 85 80 76 78 81 80 78 80 80 81 80 78 78 77 78 77 75 75 75 75 77 78 78 87 82 62 58 64 66 62 56 50 41 42 57 66 66 65 65
99 99 96 91 89 86 83 82 81 81 82 82 84 83 79 77 77 79 77 76 78 79 82 79 78 78 76 77 76 74 75 76 77 77 78 85 86 58 27 32 48 54 55 52 45 40 51 61 64 66 64 63
100 98 92 87 87 84 81 82 81 80 80 79 81 80 77 76 75 76 75 75 75 76 77 75 77 76 73 73 73 75 75 78 79 76 85 82 56 27 18 23 25 29 35 35 39 47 58 61 63 68 67 63
99 95 91 89 91 89 83 80 77 78 78 76 79 80 76 73 74 75 74 74 71 68 68 71 77 76 75 73 73 77 76 78 77 80 86 57 20 13 17 18 18 21 21 25 41 56 57 56 63 70 69 65
98 95 96 94 94 95 88 82 78 77 75 73 78 79 74 73 75 75 74 75 69 64 61 65 73 76 78 76 76 79 80 79 77 84 70 26 7 13 12 14 18 19 19 22 32 46 49 49 61 71 70 69
98 98 100 94 95 96 90 85 81 77 73 72 77 79 74 72 76 75 75 77 72 65 62 63 70 74 76 77 77 79 81 79 78 77 46 13 10 9 7 11 12 14 17 18 20 29 36 41 58 69 68 70
98 100 100 96 96 95 89 84 81 79 73 71 76 78 75 71 74 75 75 77 73 67 63 63 68 72 75 76 75 75 76 76 76 64 29 10 11 7 9 9 8 11 11 14 17 22 27 34 52 64 66 70
99 100 100 99 98 93 89 84 82 80 73 71 76 78 75 72 73 72 71 72 70 68 62 60 63 70 75 74 72 69 64 63 61 45 20 9 11 13 14 11 10 12 11 14 16 19 23 28 42 56 65 69
100 99 100 101 98 92 88 86 86 84 76 73 77 79 76 73 72 70 69 69 68 67 63 58 58 65 72 71 69 64 52 45 38 26 14 9 16 21 17 11 11 12 15 16 16 18 19 23 33 46 61 67
99 98 99 99 96 93 90 89 88 83 76 72 75 80 77 73 70 68 68 68 67 66 64 58 55 60 68 70 69 66 54 41 30 20 15 12 17 20 14 10 10 11 14 15 16 15 14 21 29 38 54 65
98 95 96 95 93 92 89 87 83 79 77 72 74 79 78 73 67 65 64 66 66 65 65 61 58 59 65 71 72 71 63 52 38 23 18 16 15 15 10 9 8 9 11 12 13 10 11 18 26 35 48 61
96 93 96 96 91 88 85 82 81 79 79 75 73 74 76 72 63 58 56 61 64 62 64 62 61 62 65 71 73 75 69 64 51 29 20 18 15 13 9 8 8 8 10 12 12 8 9 15 24 32 42 59
97 93 96 96 90 88 88 86 84 81 79 75 71 69 74 72 61 54 50 55 60 61 64 62 63 65 67 70 73 76 70 65 55 33 22 19 16 14 13 13 10 10 12 14 14 10 9 14 24 29 38 56
98 94 93 92 91 91 93 92 89 84 81 77 72 68 71 69 60 54 51 52 57 61 63 60 61 66 68 69 72 74 67 61 51 33 23 21 20 17 19 20 15 17 16 13 13 10 10 14 22 29 35 51
98 96 94 93 93 92 91 91 88 85 82 78 74 69 68 67 62 56 53 53 56 59 60 58 61 64 66 66 68 68 61 54 43 31 24 22 22 20 23 24 19 23 21 15 13 9 9 13 20 28 33 43
98 98 98 96 95 94 92 90 86 83 82 80 76 71 69 69 65 59 54 53 56 57 57 58 60 61 62 63 63 61 55 48 37 29 25 22 22 21 24 25 20 22 25 22 16 11 10 12 16 23 28 36
97 98 98 95 94 95 95 92 88 86 84 81 77 73 72 72 68 62 55 53 55 56 55 55 56 55 56 56 54 51 48 42 35 28 25 23 21 21 23 24 20 20 24 25 20 15 13 13 14 17 24 31
94 94 96 95 93 93 93 92 90 90 88 84 80 78 76 76 74 67 60 55 56 56 55 53 50 49 49 49 46 43 40 37 33 27 24 23 20 19 21 24 22 19 23 24 20 17 14 17 18 15 21 26
92 92 95 96 94 92 91 92 91 91 89 85 83 81 77 77 75 71 65 61 60 58 56 52 48 46 46 45 41 38 36 33 31 26 25 25 22 18 18 25 25 21 24 24 21 20 16 20 21 16 19 20
92 92 93 94 93 90 89 91 92 90 88 85 83 80 76 75 74 72 71 68 65 62 57 53 48 45 44 41 38 35 33 32 29 26 25 25 24 22 20 24 25 22 26 26 23 22 20 21 21 19 20 19
95 93 91 92 92 91 90 90 93 94 90 85 84 82 78 77 76 75 74 71 69 66 59 55 49 44 41 39 37 34 32 31 29 26 27 26 25 26 24 23 23 22 25 26 25 24 23 23 19 20 24 22
97 95 92 91 92 94 92 90 94 96 93 89 87 86 84 83 82 78 74 73 72 67 60 54 49 44 41 39 36 34 32 31 28 25 26 25 24 26 26 25 24 23 24 26 26 25 24 24 21 21 25 25
98 98 95 93 94 94 91 90 94 97 97 93 88 86 85 84 84 80 78 76 73 68 61 54 48 44 41 39 36 33 31 29 27 25 24 25 24 24 26 27 27 24 25 26 28 29 27 25 22 21 25 25
92 95 96 98 96 93 91 91 93 95 95 95 92 89 87 84 83 83 82 78 73 71 65 56 50 45 41 39 37 34 31 29 28 26 25 26 26 25 24 25 28 26 25 28 29 28 29 29 27 22 22 24
82 85 89 96 99 98 96 95 95 94 94 96 96 94 90 86 83 83 83 80 77 74 69 60 53 48 43 40 39 35 33 32 30 29 28 27 26 27 26 24 27 28 25 26 25 25 30 34 34 31 27 25
75 78 81 85 92 97 99 100 99 98 98 98 97 95 92 88 84 82 81 80 78 76 72 67 58 51 49 46 42 37 35 33 31 30 29 29 28 28 30 29 29 28 25 23 23 26 28 27 32 37 36 31
68 74 77 80 84 89 94 99 99 99 100 100 99 97 93 89 86 83 80 79 79 77 75 72 63 57 56 52 44 39 37 35 31 30 30 31 30 29 31 31 31 32 28 23 20 22 22 24 33 34 31 32
63 69 74 81 88 91 94 99 98 96 99 100 100 99 97 93 91 88 83 81 80 79 79 76 69 64 61 56 48 43 41 38 34 32 32 32 31 31 31 31 33 35 32 26 20 18 17 23 31 25 23 30
61 65 68 74 83 88 93 99 96 91 93 98 99 99 99 97 95 92 88 85 83 83 83 81 76 70 65 60 54 50 48 46 43 38 36 34 32 33 34 32 34 34 34 31 24 18 15 17 21 19 21 29
Wind_Speed
29 30 30 29 27 26 26 24 23 24 25 23 23 24 24 23 24 23 23 20 17 16 15 14 14 14 14 14 13 13 13 13 12 12 11 9 9 8 8 8 11 15 15 14 13 12 11 12 14 12 9 11
30 29 30 30 30 30 29 27 24 24 24 23 24 25 25 23 22 23 24 23 20 17 16 15 15 14 14 14 13 13 13 12 12 11 9 8 8 8 7 8 12 15 14 14 13 11 10 11 13 12 11 12
31 29 31 30 31 32 30 28 26 26 25 24 25 26 26 23 23 24 24 23 22 20 18 17 16 15 14 14 14 13 13 12 11 10 9 8 7 7 7 9 11 13 13 13 12 11 11 11 13 12 11 10
31 31 33 32 32 32 30 29 28 28 27 26 26 26 26 25 25 25 24 24 23 21 20 19 18 16 14 14 14 13 12 12 10 10 10 8 6 6 7 8 9 10 11 11 10 11 12 11 12 12 10 8
29 31 32 32 32 32 32 32 31 30 29 29 28 27 27 27 26 26 26 26 25 23 22 21 19 17 15 14 13 13 13 12 11 10 9 8 6 6 6 7 8 9 10 10 11 12 12 11 12 12 9 9
30 30 31 33 33 32 32 33 33 32 31 30 29 28 28 28 28 27 27 26 26 24 22 22 20 18 17 15 13 13 13 12 12 10 8 8 8 7 6 6 7 9 10 11 13 13 12 11 12 12 9 9
32 33 33 34 33 32 33 34 34 33 31 30 30 29 29 28 29 28 27 25 24 22 22 22 20 19 17 16 15 14 14 13 12 11 9 9 8 7 7 7 7 8 9 11 12 12 11 11 13 12 10 8
30 32 34 35 34 33 34 34 34 32 30 29 29 29 29 29 29 28 27 26 23 21 22 22 21 20 18 18 17 16 16 16 14 12 9 8 7 7 7 8 8 9 10 11 11 11 11 12 13 12 10 7
29 31 34 36 35 34 35 34 33 31 29 29 30 29 29 30 29 27 27 27 24 22 22 22 22 21 20 20 19 18 17 16 14 11 7 7 7 7 7 8 9 9 10 11 11 11 12 12 13 12 11 9
30 30 33 35 36 35 35 34 33 32 30 29 30 30 30 31 30 29 27 26 25 23 22 22 21 21 21 21 19 18 16 14 13 11 8 7 8 7 8 9 10 10 10 10 11 12 12 12 13 12 12 12
30 29 30 32 35 36 35 33 33 32 31 29 30 31 31 32 32 30 28 27 25 24 23 22 22 21 21 20 19 18 15 13 13 11 9 9 9 9 10 10 11 12 12 12 12 12 13 13 13 13 13 14
30 29 29 30 32 34 35 34 33 32 32 30 31 32 32 32 32 31 30 28 27 25 24 24 23 22 21 21 21 19 17 14 13 11 10 10 11 11 11 10 11 12 12 13 13 13 14 14 14 14 14 14
29 30 31 32 33 33 34 35 34 35 35 33 33 33 32 33 32 31 30 29 28 27 26 25 24 23 22 22 21 20 18 16 14 12 11 11 12 12 11 10 11 12 12 12 12 12 13 15 14 15 15 15
30 33 35 36 36 36 37 38 37 38 38 36 35 34 34 34 32 31 30 29 28 27 27 27 26 24 23 22 21 20 19 17 14 13 13 12 12 12 11 11 12 12 12 11 11 12 13 14 14 14 16 16
32 34 36 37 37 38 39 40 40 41 40 38 36 36 36 35 33 30 30 30 29 28 27 28 28 26 24 22 21 20 20 17 16 15 14 12 12 12 11 11 12 12 13 13 12 13 13 13 13 14 16 17
33 36 37 39 39 38 38 38 39 41 41 40 39 37 38 37 35 32 31 31 31 30 27 28 29 27 25 23 22 22 21 19 17 16 15 13 13 12 11 11 11 11 12 13 12 13 14 14 14 13 15 17
32 34 35 36 38 39 39 38 39 40 41 41 40 39 39 39 37 35 33 33 32 32 29 28 29 29 27 26 25 24 22 20 19 18 17 15 14 13 13 13 13 11 10 11 12 12 14 14 14 14 14 16
30 31 32 32 35 37 39 40 41 42 42 42 41 39 40 40 39 37 34 33 33 33 31 30 29 29 29 28 26 25 23 21 20 19 18 17 16 15 15 14 14 14 11 11 11 12 13 14 14 14 14 15
29 30 30 32 35 36 36 38 40 41 42 44 43 41 42 41 39 39 36 35 34 34 33 32 30 30 29 28 27 26 25 23 21 20 18 17 17 16 16 14 14 14 13 12 11 12 13 13 13 14 14 15
26 29 30 31 34 33 32 35 36 37 39 41 40 38 41 40 36 37 37 36 36 36 35 34 33 32 31 29 28 27 26 25 23 21 19 18 17 17 16 14 13 14 13 12 11 12 13 12 13 14 15 15
24 27 30 30 31 30 28 31 33 34 34 36 36 35 38 39 35 36 37 36 36 36 36 35 34 34 33 31 30 29 28 26 24 23 21 19 18 18 17 16 14 14 14 12 12 11 12 13 13 13 14 14
25 25 26 26 29 31 28 29 31 31 32 35 36 36 39 40 38 38 37 36 36 36 36 36 35 34 34 33 32 31 29 28 26 25 23 21 20 18 18 19 17 17 16 14 14 13 13 14 13 12 13 13
21 22 22 23 26 29 28 29 29 29 32 35 37 38 39 40 40 39 37 37 37 36 36 36 35 35 35 34 33 31 30 29 28 27 25 23 22 19 18 20 19 19 18 16 16 15 15 14 14 13 12 13
13 17 20 20 22 25 27 29 30 30 32 34 34 35 35 36 38 38 37 36 35 35 35 36 35 35 35 35 34 33 32 32 31 30 28 27 26 23 20 19 19 19 19 18 16 13 13 12 12 13 14 14
11 10 16 18 20 23 25 28 31 31 31 32 33 34 34 35 36 37 37 35 34 34 33 33 34 34 35 35 35 35 34 34 34 33 31 30 28 27 25 21 19 20 20 18 15 11 11 12 12 13 14 15
24 17 12 14 20 23 26 28 31 32 33 33 34 34 34 34 34 35 36 36 36 36 34 31 31 33 35 36 36 36 35 34 34 34 33 32 30 28 28 25 22 24 22 18 17 13 9 8 10 13 15 16
29 27 23 17 14 17 22 24 26 31 33 32 31 31 31 32 33 34 35 36 37 36 36 33 30 31 35 36 37 37 35 34 33 34 34 34 33 31 28 26 25 28 26 21 20 15 7 4 5 8 14 17
30 28 25 22 19 15 13 14 18 23 26 27 28 29 30 32 34 35 37 38 39 38 38 37 34 32 33 35 37 37 37 35 35 35 35 35 35 33 30 27 28 31 31 26 21 12 4 5 5 3 9 17
32 30 28 27 25 23 20 15 13 16 19 22 25 29 32 35 38 39 40 42 42 42 41 40 39 36 35 36 36 37 38 38 38 37 36 35 34 35 34 31 30 32 33 30 26 18 8 6 4 3 7 12
32 30 29 28 26 25 25 21 15 12 15 19 22 25 29 32 35 37 39 42 42 43 43 42 40 38 37 37 37 37 37 37 38 37 37 37 36 36 35 33 30 30 34 33 31 28 18 9 6 5 9 7
33 31 28 26 24 22 22 21 20 19 16 16 19 23 24 24 27 31 34 37 39 40 41 41 39 37 36 37 37 38 37 35 35 37 38 38 38 36 34 32 29 31 34 33 32 33 27 17 11 9 11 7
Wind_Direction
171 167 166 164 164 164 160 158 155 155 153 149 147 143 143 145 146 141 136 138 137 135 136 131 130 130 128 127 125 123 123 117 114 115 112 108 111 117 113 109 124 137 140 137 133 126 123 119 113 101 99 105
174 170 169 168 166 164 161 159 158 156 154 153 151 148 151 152 146 142 139 140 140 139 140 136 134 133 133 131 129 127 126 124 120 118 114 111 112 114 113 125 136 140 141 139 136 130 127 126 117 100 104 109
179 177 173 168 165 164 161 158 158 157 157 157 155 155 156 151 143 143 143 142 141 141 144 142 139 138 138 136 134 131 129 130 128 123 120 117 115 118 130 146 148 147 146 145 140 135 135 131 118 106 111 103
179 178 173 170 169 167 161 157 158 158 160 159 158 159 155 150 148 150 149 146 144 145 147 145 144 144 143 142 138 136 136 133 132 131 127 127 132 131 136 145 156 160 158 156 150 146 144 137 123 114 114 96
177 172 171 173 172 169 165 161 163 163 164 163 163 163 158 155 154 155 154 151 150 151 151 147 148 151 149 147 145 143 140 138 139 139 136 139 137 127 127 139 153 160 162 161 157 154 150 145 134 121 116 108
180 173 173 174 171 170 170 167 167 168 168 166 166 167 164 162 160 159 159 159 157 155 153 151 154 156 153 150 150 149 144 145 146 145 147 143 132 128 138 149 155 157 158 158 158 160 158 154 143 126 120 119
184 179 177 175 172 172 171 169 170 170 170 169 170 170 169 167 166 166 165 167 164 156 154 155 157 157 156 152 150 152 149 148 149 156 162 145 131 136 149 161 167 165 160 160 163 166 168 164 151 129 124 132
188 183 180 177 174 174 173 171 171 172 172 172 174 174 173 170 169 170 168 169 166 159 156 158 161 161 162 157 157 162 160 158 162 172 168 143 140 146 155 169 173 172 169 167 167 170 176 171 158 138 131 143
192 188 183 179 176 176 175 174 174 175 175 175 178 178 177 175 174 172 168 167 167 164 162 163 166 169 169 166 168 176 175 173 178 183 170 150 156 157 163 174 174 175 176 174 172 174 178 173 164 152 141 144
194 193 187 179 176 177 177 178 178 179 178 178 181 181 180 178 177 174 171 170 171 170 170 170 172 175 176 176 179 183 182 180 185 186 177 166 163 164 172 177 175 173 175 176 180 182 178 172 166 164 154 145
196 195 188 179 177 178 178 179 178 178 178 179 182 184 183 181 179 176 174 174 175 176 176 177 178 181 183 185 189 188 182 178 184 187 179 170 168 177 186 185 181 178 179 181 185 187 180 172 168 169 163 150
199 195 188 181 181 180 179 178 178 181 182 182 185 187 186 184 181 178 176 176 177 178 179 180 182 186 188 191 195 193 191 188 189 192 183 176 180 192 196 193 189 187 189 188 190 190 181 175 172 171 167 160
202 196 191 187 188 187 185 184 184 187 187 185 186 189 189 187 184 180 178 177 178 179 179 180 183 188 191 193 195 195 199 200 197 193 190 189 192 199 198 193 191 191 190 190 192 190 182 178 176 174 172 168
204 199 195 192 193 194 193 192 191 191 190 188 190 193 193 192 190 184 181 179 180 182 182 181 184 189 192 194 195 197 201 205 203 196 198 198 195 198 195 192 192 189 183 184 191 187 182 181 180 179 175 170
206 202 199 195 196 196 194 193 193 194 193 192 194 197 196 196 195 191 186 184 182 184 184 183 185 188 191 193 195 199 202 205 205 200 204 200 194 195 189 189 191 186 184 184 190 186 180 178 177 179 177 172
208 206 204 199 198 197 195 193 193 194 194 195 197 199 198 199 199 196 191 188 186 184 184 184 186 188 190 191 192 197 201 202 201 200 203 196 193 191 182 188 186 183 192 190 190 187 181 179 175 175 178 176
210 210 208 203 202 201 198 197 197 198 197 198 200 201 201 201 200 198 194 192 189 186 186 186 185 186 189 192 192 194 198 199 197 198 199 193 191 186 182 190 182 177 193 194 192 190 184 182 177 176 179 180
212 214 212 208 208 207 203 200 201 203 202 201 203 203 202 201 199 198 197 195 192 190 189 187 186 187 190 192 193 195 199 199 197 199 198 193 190 187 186 192 184 176 184 192 192 187 185 186 183 181 181 183
217 217 216 214 214 213 208 204 204 204 204 204 204 203 202 201 199 199 199 199 197 194 193 191 189 191 192 193 195 197 201 202 200 200 201 200 195 190 189 194 191 181 181 192 193 186 185 188 188 185 183 185
221 221 220 219 220 218 212 208 208 206 205 204 202 200 200 200 199 199 201 202 200 197 196 196 195 196 195 194 196 199 202 202 202 202 204 207 204 198 191 192 194 184 185 194 193 194 189 187 192 187 186 191
222 223 223 223 226 227 219 214 215 212 207 205 202 201 201 201 200 202 204 204 202 201 200 199 198 198 197 196 198 199 200 201 201 202 203 203 203 205 195 189 191 181 184 193 191 196 190 190 198 191 194 198
222 220 221 224 230 233 228 222 223 221 213 209 207 206 205 205 205 205 206 205 204 202 202 201 199 199 198 199 199 199 199 197 197 200 202 198 194 201 196 189 190 183 184 190 189 190 187 195 200 192 203 206
224 219 218 222 229 233 232 228 229 226 219 215 213 212 209 207 206 205 207 208 206 203 202 201 200 199 199 199 198 197 196 192 192 196 200 199 192 193 196 197 196 187 185 185 186 189 190 201 202 191 203 208
244 223 217 220 223 228 231 231 232 229 223 219 218 218 212 207 207 206 207 209 206 203 202 202 200 199 199 199 197 196 195 192 194 198 199 201 198 191 190 197 198 189 185 182 179 185 191 201 202 195 202 205
327 255 234 228 223 228 236 235 231 229 226 223 222 224 219 213 211 209 207 208 207 204 203 202 200 198 199 200 199 200 201 199 199 202 202 201 199 195 189 187 191 190 185 177 171 175 188 197 198 197 203 208
2 346 311 267 244 240 242 239 233 229 229 227 225 225 222 218 215 213 210 209 209 208 206 205 202 200 201 202 203 203 204 203 201 201 201 197 194 196 195 190 186 187 183 176 176 173 172 193 206 211 213 215
4 359 354 337 301 270 253 244 240 235 231 229 227 227 226 222 219 218 215 212 212 211 209 208 205 204 205 204 204 204 202 201 200 199 199 198 195 192 194 193 188 190 192 186 179 172 166 182 196 221 221 217
4 359 356 354 349 332 293 264 252 244 236 232 232 231 230 229 227 224 221 218 216 215 214 212 209 208 209 208 206 205 202 201 201 202 201 200 198 190 184 188 190 196 200 193 180 170 162 173 167 214 212 211
6 5 0 356 357 358 347 320 278 250 236 233 233 231 232 232 232 230 227 225 221 219 219 216 212 211 214 213 209 207 205 205 205 206 204 200 199 196 189 187 189 195 200 198 194 189 175 164 187 224 182 190
9 9 8 5 2 1 357 346 324 285 251 237 232 231 234 233 231 229 227 225 223 222 221 219 215 213 216 216 213 211 210 209 206 204 205 203 202 203 199 192 185 190 198 201 201 200 196 189 188 174 160 158
13 10 7 8 7 3 359 354 346 336 314 279 254 242 239 237 234 231 228 225 224 223 223 221 217 213 216 217 216 214 213 213 210 206 207 207 205 205 204 197 189 189 194 198 203 203 204 204 197 178 167 160